sat.trackr.live / text

‹ back to catalog

STARLINK-37018

NORAD 68103 · 2026-044C

PAYLOAD ACTIVE UNKNOWN

§ Identity

Operator
Country
US
Launch date
2026-03-08
Launch site
AFWTR
Launch vehicle
Mass (kg)
RCS (m²)

Purposes: comms

External: N2YO · Heavens-Above · Gunter

§ Orbital elements

Epoch: 2026-09-20T02:38:45.835008Z

Period
93.91 min
Inclination
97.2853°
Eccentricity
0.0001620
Mean motion
15.33457252 rev/d
Perigee alt
464.4 km
Apogee alt
466.6 km
Semi-major
6,843.6 km
B*
5.0080e-4
RAAN
221.9984°
Arg perigee
73.6313°
Mean anomaly
286.5108°
Rev number
3,137

§ Raw data

STARLINK-370181 68103U 26044C   26263.11025272  .00016134  00000+0  50080-3 0  99932 68103  97.2853 221.9984 0001620  73.6313 286.5108 15.33457252 31372

JSON: /api/v1/satellites/68103 · /tle

For live sub-satellite position, see the globe view (requires WebGL).

§ Visibility from observer

Set your observer location to see the next 7 days of passes ≥ 10°. The values pass through the URL so the page stays shareable.

No JS? Fill the form by hand. The geolocation button needs JavaScript.